EWG49X EDDH-LEBL

Flight info

Callsign EWG49X
Flight time N/A
Altitude 23000
Route IDEKO7G/33 IDEKO N850 PIROT/N0450F370 N850 XAROL/N0453F380 DCT BOMBI DCT GIGET DCT ABUKA DCT KRH DCT NATOR/N0454F370 DCT LUTIX DCT BENOT DCT NEMOS DCT GEVEA/N0419F270 DCT INCUS DCT BALSI DCT RETNO DCT TUPOX DCT MTG DCT DIVKO DCT NILDU DCT BISBA
Aircraft A319/M-SDE3FGHIRWY/LB1

Departure

Time 2026-05-06 16:32
Airport Hamburg Helmut Schmidt Airport (EDDH)

Arrival

Time N/A
Airport Josep Tarradellas Barcelona-El Prat Airport (LEBL)
Time Latitude Longitude Altitude Speed Heading
2026-05-06 16:00 53.62736 10.00301 51 ft 0 kts 62°
2026-05-06 16:20 53.62726 10.00272 50 ft 4 kts 62°
2026-05-06 16:20 53.62713 10.00233 48 ft 4 kts 48°
2026-05-06 16:21 53.62695 10.00217 47 ft 4 kts 340°
2026-05-06 16:21 53.62681 10.00228 48 ft 4 kts 338°
2026-05-06 16:21 53.62676 10.00231 50 ft 0 kts 333°
2026-05-06 16:27 53.62684 10.00223 49 ft 4 kts 332°
2026-05-06 16:27 53.62706 10.00204 50 ft 5 kts 332°
2026-05-06 16:27 53.62726 10.00187 49 ft 4 kts 332°
2026-05-06 16:28 53.62768 10.00151 49 ft 9 kts 333°
2026-05-06 16:28 53.62792 10.00130 51 ft 1 kts 333°
2026-05-06 16:28 53.62802 10.00122 51 ft 1 kts 333°
2026-05-06 16:28 53.62818 10.00108 51 ft 5 kts 333°
2026-05-06 16:29 53.62845 10.00073 51 ft 6 kts 308°
2026-05-06 16:29 53.62852 10.00001 52 ft 7 kts 263°
2026-05-06 16:29 53.62842 9.99955 52 ft 0 kts 243°
2026-05-06 16:30 53.62838 9.99942 52 ft 4 kts 243°
2026-05-06 16:30 53.62829 9.99911 52 ft 5 kts 243°
2026-05-06 16:30 53.62814 9.99806 53 ft 10 kts 293°
2026-05-06 16:30 53.62843 9.99763 53 ft 0 kts 332°
2026-05-06 16:31 53.62855 9.99751 51 ft 4 kts 332°
2026-05-06 16:31 53.62996 9.99628 52 ft 54 kts 333°
2026-05-06 16:31 53.63532 9.99165 50 ft 117 kts 332°
2026-05-06 16:31 53.64416 9.98406 102 ft 165 kts 335°
2026-05-06 16:32 53.65410 9.97594 921 ft 155 kts 339°
2026-05-06 16:32 53.66390 9.96775 1589 ft 164 kts 339°
2026-05-06 16:32 53.67481 9.95849 2037 ft 186 kts 339°
2026-05-06 16:32 53.68700 9.94807 2410 ft 207 kts 339°
2026-05-06 16:33 53.70010 9.93671 3135 ft 214 kts 337°
2026-05-06 16:33 53.71117 9.91908 3950 ft 231 kts 302°
2026-05-06 16:33 53.71442 9.89166 4576 ft 255 kts 264°
2026-05-06 16:34 53.70375 9.83000 6042 ft 283 kts 251°
2026-05-06 16:34 53.69703 9.79874 6990 ft 286 kts 250°
2026-05-06 16:34 53.69020 9.76693 7879 ft 291 kts 251°
2026-05-06 16:34 53.68372 9.73593 8780 ft 293 kts 251°
2026-05-06 16:35 53.67706 9.70329 9720 ft 296 kts 251°
2026-05-06 16:35 53.67038 9.67013 10360 ft 309 kts 250°
2026-05-06 16:35 53.66100 9.63731 10522 ft 308 kts 235°
2026-05-06 16:35 53.64686 9.60880 10727 ft 329 kts 221°
2026-05-06 16:36 53.62794 9.58600 11199 ft 339 kts 206°
2026-05-06 16:36 53.60594 9.57155 11944 ft 340 kts 192°
2026-05-06 16:36 53.58257 9.56543 12710 ft 341 kts 186°
2026-05-06 16:36 53.55921 9.56078 13492 ft 342 kts 185°
2026-05-06 16:37 53.53557 9.55617 14174 ft 344 kts 186°
2026-05-06 16:37 53.51175 9.55156 14858 ft 345 kts 186°
2026-05-06 16:37 53.48786 9.54692 15479 ft 348 kts 187°
2026-05-06 16:37 53.46363 9.54220 16077 ft 351 kts 187°
2026-05-06 16:38 53.43924 9.53742 16685 ft 355 kts 187°
2026-05-06 16:38 53.41466 9.53254 17283 ft 358 kts 187°
2026-05-06 16:38 53.38976 9.52760 17908 ft 361 kts 187°
2026-05-06 16:38 53.36477 9.52268 18473 ft 364 kts 187°
2026-05-06 16:39 53.33950 9.51772 19002 ft 367 kts 187°
2026-05-06 16:39 53.31411 9.51272 19459 ft 361 kts 187°
2026-05-06 16:39 53.28896 9.50779 19673 ft 369 kts 187°
2026-05-06 16:39 53.26333 9.50278 20162 ft 374 kts 187°
2026-05-06 16:40 53.23727 9.49769 20708 ft 377 kts 187°
2026-05-06 16:40 53.21111 9.49263 21245 ft 380 kts 187°
2026-05-06 16:40 53.18473 9.48753 21803 ft 382 kts 187°
2026-05-06 16:40 53.15818 9.48237 22286 ft 386 kts 187°
2026-05-06 16:41 53.13140 9.47716 22743 ft 390 kts 187°
2026-05-06 16:41 53.10443 9.47190 22857 ft 387 kts 187°
2026-05-06 16:41 53.07809 9.46678 22872 ft 384 kts 187°
2026-05-06 16:41 53.05163 9.46165 22865 ft 382 kts 187°
2026-05-06 16:42 53.02521 9.45654 22865 ft 383 kts 187°
2026-05-06 16:42 52.99875 9.45142 22865 ft 383 kts 187°
2026-05-06 16:42 52.97220 9.44612 22860 ft 384 kts 187°
2026-05-06 16:42 52.94578 9.44055 22861 ft 383 kts 187°
2026-05-06 16:43 52.91930 9.43480 22861 ft 382 kts 187°
2026-05-06 16:43 52.89378 9.42920 22860 ft 382 kts 187°
2026-05-06 16:43 52.86686 9.42335 22844 ft 381 kts 188°
2026-05-06 16:43 52.84052 9.41774 22837 ft 382 kts 188°
2026-05-06 16:44 52.81414 9.41215 22838 ft 382 kts 188°
2026-05-06 16:44 52.78774 9.40655 22838 ft 383 kts 188°
2026-05-06 16:44 52.76134 9.40091 22835 ft 383 kts 188°
2026-05-06 16:44 52.73492 9.39527 22833 ft 383 kts 188°
2026-05-06 16:45 52.70848 9.38966 22830 ft 383 kts 188°
2026-05-06 16:45 52.68201 9.38405 22825 ft 384 kts 188°
2026-05-06 16:45 52.65553 9.37844 22828 ft 384 kts 188°
2026-05-06 16:45 52.62905 9.37282 22834 ft 384 kts 188°
2026-05-06 16:46 52.60289 9.36693 22850 ft 384 kts 189°
2026-05-06 16:46 52.57650 9.36022 22843 ft 384 kts 190°
2026-05-06 16:46 52.56894 9.35819 22844 ft 384 kts 190°
2026-05-06 16:46 52.54255 9.35098 22843 ft 384 kts 190°
2026-05-06 16:47 52.52959 9.34740 22840 ft 384 kts 190°
2026-05-06 16:47 52.50319 9.34018 22839 ft 384 kts 190°
2026-05-06 16:47 52.47682 9.33308 22838 ft 384 kts 190°
2026-05-06 16:47 52.45041 9.32609 22838 ft 384 kts 190°
2026-05-06 16:48 52.42396 9.31916 22838 ft 384 kts 190°
2026-05-06 16:48 52.39756 9.31231 22822 ft 384 kts 190°
2026-05-06 16:48 52.37117 9.30548 22825 ft 384 kts 191°
2026-05-06 16:48 52.32652 9.29396 22832 ft 383 kts 191°
2026-05-06 16:49 52.27972 9.28171 22836 ft 383 kts 191°
2026-05-06 16:49 52.22711 9.26787 22848 ft 383 kts 190°
2026-05-06 16:49 52.17413 9.25723 22848 ft 384 kts 187°
2026-05-06 16:49 52.12093 9.24865 22828 ft 384 kts 187°
2026-05-06 16:50 52.06777 9.23970 22827 ft 384 kts 188°
2026-05-06 16:50 52.01464 9.22845 22833 ft 384 kts 191°
2026-05-06 16:50 51.96187 9.21391 22827 ft 384 kts 192°
2026-05-06 16:50 51.92698 9.20414 22828 ft 384 kts 191°
2026-05-06 16:51 51.85635 9.18581 22833 ft 390 kts 189°
2026-05-06 16:51 51.81995 9.17785 23021 ft 405 kts 189°
2026-05-06 16:51 51.76272 9.16599 23314 ft 424 kts 188°
2026-05-06 16:51 51.70302 9.15347 23562 ft 440 kts 189°
2026-05-06 16:52 51.64133 9.14024 23789 ft 453 kts 189°
2026-05-06 16:52 51.57830 9.12665 24385 ft 455 kts 189°
2026-05-06 16:52 51.51586 9.11312 25269 ft 452 kts 189°
2026-05-06 16:52 51.45408 9.09609 26183 ft 447 kts 193°
2026-05-06 16:53 51.39434 9.07452 27512 ft 433 kts 195°
2026-05-06 16:53 51.33603 9.05313 28691 ft 427 kts 194°
2026-05-06 16:53 51.27795 9.03575 29824 ft 423 kts 190°
2026-05-06 16:53 51.21965 9.02496 30717 ft 421 kts 187°
2026-05-06 16:54 51.16134 9.01525 31480 ft 422 kts 188°
2026-05-06 16:54 51.10279 9.00409 32265 ft 423 kts 189°
2026-05-06 16:54 51.04429 8.99217 33067 ft 424 kts 189°
2026-05-06 16:54 50.98561 8.98029 33876 ft 425 kts 189°
2026-05-06 16:55 50.92793 8.96895 34669 ft 422 kts 189°
2026-05-06 16:55 50.88423 8.96035 35191 ft 422 kts 189°
2026-05-06 16:55 50.85541 8.95465 35506 ft 422 kts 189°
2026-05-06 16:55 50.82629 8.94891 35836 ft 422 kts 189°
2026-05-06 16:56 50.79713 8.94319 36156 ft 422 kts 189°
2026-05-06 16:56 50.76805 8.93749 36468 ft 422 kts 189°
2026-05-06 16:56 50.73885 8.93176 36768 ft 422 kts 189°
2026-05-06 16:56 50.70972 8.92604 37065 ft 422 kts 189°
2026-05-06 16:57 50.68059 8.92034 37357 ft 422 kts 189°
2026-05-06 16:57 50.65139 8.91465 37658 ft 422 kts 189°
2026-05-06 16:57 50.62225 8.90900 37796 ft 423 kts 189°
2026-05-06 16:58 50.54230 8.89349 37802 ft 422 kts 189°
2026-05-06 16:58 50.42602 8.87098 37805 ft 420 kts 188°
2026-05-06 16:59 50.31025 8.84865 37800 ft 420 kts 188°
2026-05-06 16:59 50.19342 8.82630 37813 ft 423 kts 188°
2026-05-06 17:00 50.07654 8.80406 37799 ft 423 kts 188°
2026-05-06 17:00 49.95967 8.78030 37804 ft 424 kts 189°
2026-05-06 17:01 49.84274 8.75589 37812 ft 424 kts 189°
2026-05-06 17:01 49.72551 8.73184 37809 ft 425 kts 189°
2026-05-06 17:02 49.60822 8.70788 37812 ft 425 kts 189°
2026-05-06 17:02 49.49153 8.68444 37815 ft 425 kts 189°
2026-05-06 17:03 49.37401 8.66088 37811 ft 426 kts 189°
2026-05-06 17:03 49.25614 8.63688 37819 ft 427 kts 189°
2026-05-06 17:04 49.13807 8.61325 37831 ft 428 kts 189°
2026-05-06 17:04 49.01999 8.58967 37842 ft 428 kts 189°
2026-05-06 17:05 48.90370 8.55714 37853 ft 426 kts 194°
2026-05-06 17:05 48.82793 8.53076 37857 ft 426 kts 194°
2026-05-06 17:06 48.76997 8.51181 37611 ft 425 kts 193°
2026-05-06 17:06 48.74124 8.50268 37758 ft 418 kts 192°
2026-05-06 17:06 48.71278 8.49366 37845 ft 419 kts 192°
2026-05-06 17:07 48.65556 8.47539 37868 ft 419 kts 193°
2026-05-06 17:07 48.59864 8.45718 37872 ft 418 kts 193°
2026-05-06 17:08 48.48973 8.42236 37878 ft 417 kts 193°
2026-05-06 17:08 48.37623 8.38634 37880 ft 417 kts 193°
2026-05-06 17:09 48.26264 8.35038 37870 ft 417 kts 192°
2026-05-06 17:09 48.15149 8.30314 37873 ft 416 kts 210°
2026-05-06 17:10 48.09374 8.24720 37881 ft 417 kts 212°
2026-05-06 17:10 48.00997 8.16684 37881 ft 417 kts 212°
2026-05-06 17:11 47.91222 8.07322 37884 ft 418 kts 212°
2026-05-06 17:11 47.82966 7.99441 37879 ft 418 kts 212°
2026-05-06 17:12 47.78174 7.94111 37880 ft 419 kts 221°
2026-05-06 17:12 47.73476 7.89013 37879 ft 419 kts 213°
2026-05-06 17:13 47.67258 7.83063 37884 ft 419 kts 211°
2026-05-06 17:13 47.62196 7.78617 37897 ft 428 kts 210°
2026-05-06 17:14 47.56632 7.73754 37893 ft 435 kts 211°
2026-05-06 17:14 47.51411 7.69185 37895 ft 435 kts 211°
2026-05-06 17:15 47.46267 7.64575 37896 ft 435 kts 211°
2026-05-06 17:15 47.40538 7.59465 38094 ft 432 kts 211°
2026-05-06 17:15 47.37956 7.57176 38374 ft 431 kts 211°
2026-05-06 17:16 47.34221 7.53881 38730 ft 430 kts 212°
2026-05-06 17:16 47.31636 7.51618 38863 ft 431 kts 211°
2026-05-06 17:16 47.29069 7.49377 38916 ft 426 kts 211°
2026-05-06 17:17 47.24041 7.44998 38938 ft 421 kts 211°
2026-05-06 17:17 47.19062 7.40672 38917 ft 402 kts 211°
2026-05-06 17:18 47.14393 7.36624 38921 ft 382 kts 211°
2026-05-06 17:18 47.09737 7.32563 38900 ft 395 kts 215°
2026-05-06 17:19 47.05645 7.27041 38903 ft 407 kts 224°
2026-05-06 17:19 47.01573 7.21140 38901 ft 414 kts 224°
2026-05-06 17:20 46.97394 7.15092 38918 ft 415 kts 224°
2026-05-06 17:20 46.89161 7.03241 38920 ft 415 kts 224°
2026-05-06 17:21 46.80933 6.91430 38932 ft 415 kts 224°
2026-05-06 17:21 46.76806 6.85535 38782 ft 415 kts 224°
2026-05-06 17:21 46.72670 6.79646 37885 ft 414 kts 224°
2026-05-06 17:22 46.64504 6.68055 37919 ft 415 kts 224°
2026-05-06 17:22 46.56170 6.56279 37915 ft 418 kts 224°
2026-05-06 17:23 46.50365 6.48108 37920 ft 418 kts 224°
2026-05-06 17:23 46.46182 6.42231 37916 ft 420 kts 224°
2026-05-06 17:24 46.41995 6.36369 37919 ft 421 kts 224°
2026-05-06 17:24 46.37780 6.30473 37920 ft 421 kts 224°
2026-05-06 17:25 46.33562 6.24589 37928 ft 421 kts 224°
2026-05-06 17:25 46.29347 6.18716 37931 ft 421 kts 224°
2026-05-06 17:26 46.24573 6.13896 37929 ft 422 kts 205°
2026-05-06 17:26 46.18880 6.11762 37925 ft 425 kts 191°
2026-05-06 17:27 46.13015 6.10459 37926 ft 425 kts 191°
2026-05-06 17:27 46.07162 6.09162 37928 ft 426 kts 191°
2026-05-06 17:28 46.01306 6.07865 37926 ft 425 kts 191°
2026-05-06 17:28 45.95494 6.06581 37920 ft 425 kts 191°
2026-05-06 17:29 45.89647 6.05293 37926 ft 425 kts 191°
2026-05-06 17:29 45.83802 6.04010 37933 ft 425 kts 191°
2026-05-06 17:30 45.77960 6.02713 37919 ft 424 kts 192°
2026-05-06 17:30 45.72115 6.01420 37928 ft 425 kts 192°
2026-05-06 17:31 45.66270 6.00136 37921 ft 424 kts 192°
2026-05-06 17:31 45.61418 5.99067 37915 ft 424 kts 192°
2026-05-06 17:32 45.55580 5.97794 37925 ft 424 kts 192°
2026-05-06 17:32 45.49739 5.96517 37924 ft 424 kts 192°
2026-05-06 17:33 45.43939 5.95077 37922 ft 422 kts 194°
2026-05-06 17:33 45.38211 5.93232 37922 ft 422 kts 196°
2026-05-06 17:34 45.32487 5.91321 37927 ft 422 kts 196°
2026-05-06 17:34 45.26760 5.89498 37934 ft 422 kts 195°
2026-05-06 17:35 45.21023 5.87736 37925 ft 422 kts 195°
2026-05-06 17:35 45.15284 5.85974 37932 ft 421 kts 195°
2026-05-06 17:36 45.06703 5.83314 37936 ft 421 kts 195°
2026-05-06 17:36 45.00986 5.81549 37920 ft 420 kts 196°
2026-05-06 17:37 44.95311 5.79799 37930 ft 420 kts 196°
2026-05-06 17:37 44.89604 5.78041 37940 ft 419 kts 196°
2026-05-06 17:38 44.83906 5.76293 37915 ft 419 kts 196°
2026-05-06 17:38 44.78212 5.74558 37920 ft 418 kts 196°
2026-05-06 17:39 44.72524 5.72815 37929 ft 418 kts 196°
2026-05-06 17:39 44.66838 5.71078 37927 ft 418 kts 196°
2026-05-06 17:40 44.61137 5.69347 37928 ft 419 kts 196°
2026-05-06 17:40 44.55434 5.67624 37911 ft 420 kts 196°
2026-05-06 17:41 44.49724 5.65891 37920 ft 420 kts 196°
2026-05-06 17:41 44.44013 5.64161 37901 ft 420 kts 196°
2026-05-06 17:42 44.38311 5.62396 37915 ft 418 kts 200°
2026-05-06 17:42 44.32895 5.59540 37916 ft 415 kts 205°
2026-05-06 17:43 44.27549 5.56608 37899 ft 415 kts 205°